WS Maaseik 1 Meer informatie WS Maaseik 1


WS Maaseik 2 Meer informatie WS Maaseik 2


Regen radar Meer informatie rain snow radar


Bezoek onze andere website:

Vorige versie
weerstation Maaseik


Bezoek ook eens deze sites:

Weerstation Geleen



Het weer levert geen direct gevaar op.    Er zijn geen waarschuwingen afgegeven.

15 daagse weersverwachting Maia (PT)

  • Overzicht
  • Per uur
  • 15 dagen
  • Extra
  • Vergelijk
  • Kaarten
  • Dagkaart
  • Meer »
  • Info
  • Statistieken
  • Directe link
    Temp 6h Neerslag Wind  
 08:03     18:34    Daglengte: 10:31 Vandaag
13:00
19°
 
5
19:00
16°
1.7 mm
7
 08:04     18:33    Daglengte: 10:29 Morgen
01:00
16°
20.8 mm
6
warningclass
07:00
15°
6.2 mm
1
13:00
17°
 
3
19:00
15°
9.9 mm
4
 08:05     18:32    Daglengte: 10:27 Zaterdag 30 Okt
01:00
18°
34.0 mm
9
warningclass
07:00
18°
36.1 mm
5
13:00
18°
28.1 mm
4
19:00
17°
33.9 mm
3
 08:06     18:30    Daglengte: 10:24 Zondag 31 Okt
01:00
18°
53.6 mm
5
warningclass
06:00
18°
56.6 mm
6
warningclass
Locatie info
Region: Porto
Latitude: 41.2327°N
Longitude: -8.6232°E
93 masl
Postcode: 4470-151
Temp/Neerslag /Baro Onweer/Dauwpunt
    Temp Baro 1h Neerslag Dauwpunt Wind UV Bewolking  
 08:03     18:34    Daglengte: 10:31 Vandaag
13:00
19°
1014.3 hPa   9.9°
5
Windvlaag: 9.8 m/s
53%
14:00
19°
1013.7 hPa   11.3°
6
Windvlaag: 10.7 m/s
52%
15:00
19°
1012.9 hPa   12.1°
6
Windvlaag: 11.1 m/s
69%
16:00
18°
1012.5 hPa   12.9°
7
Windvlaag: 10.6 m/s
59%
17:00
17°
1011.9 hPa   13.7°
7
Windvlaag: 9.8 m/s
85%
18:00
17°
1011.3 hPa
20%
13.7°
6
Windvlaag: 11.1 m/s
85%
19:00
16°
1011.0 hPa 1.7 mm
76%
14.1°
7
Windvlaag: 11.8 m/s
86%
20:00
16°
1010.7 hPa 4.2 mm
82%
14.2°
7
Windvlaag: 12.3 m/s
86%
21:00
16°
1010.6 hPa 4.6 mm
82%
14.4°
7
Windvlaag: 12.8 m/s
86%
22:00
16°
1010.6 hPa 5.5 mm
82%
15.1°
7
Windvlaag: 13.4 m/s
86%
23:00
16°
1010.2 hPa 3.3 mm
82%
15.4°
7
Windvlaag: 12.6 m/s
86%
 08:04     18:33    Daglengte: 10:29 Morgen
00:00
16°
1009.7 hPa 1.7 mm
82%
15.5°
6
Windvlaag: 12.1 m/s
86%
01:00
16°
1009.4 hPa 1.5 mm
82%
15.6°
6
Windvlaag: 10.6 m/s
86% warningclass
02:00
16°
1009.2 hPa 2.2 mm
82%
15.6°
5
Windvlaag: 9.3 m/s
86% warningclass
03:00
16°
1009.0 hPa 1.9 mm
82%
15.4°
5
Windvlaag: 9.2 m/s
86%
04:00
16°
1009.2 hPa 2.1 mm
79%
14.2°
4
Windvlaag: 9.2 m/s
84%
05:00
16°
1009.2 hPa
21%
14.3°
2
Windvlaag: 6.8 m/s
69%
06:00
16°
1009.7 hPa
23%
13.9°
2
Windvlaag: 6.3 m/s
74%
07:00
15°
1010.0 hPa
23%
13.7°
1
Windvlaag: 3.2 m/s
33%
08:00
15°
1010.4 hPa
20%
13.6°
1
Windvlaag: -0 m/s
79%
09:00
15°
1011.1 hPa
29%
13.3°
1
Windvlaag: 0.1 m/s
73%
10:00
15°
1011.4 hPa
23%
13.5°
1
Windvlaag: 1.8 m/s
63%
11:00
16°
1011.5 hPa
34%
13.6°
2
Windvlaag: 2.3 m/s
60%
12:00
16°
1011.4 hPa
35%
13.7°
3
Windvlaag: 4.3 m/s
71%
13:00
17°
1011.1 hPa
26%
13.3°
3
Windvlaag: 5.2 m/s
70%
14:00
17°
1010.6 hPa
28%
11.5°
4
Windvlaag: 5.6 m/s
85%
15:00
16°
1010.1 hPa 1.5 mm
82%
10.7°
4
Windvlaag: 6.3 m/s
85%
16:00
16°
1009.6 hPa 1.7 mm
82%
10.5°
4
Windvlaag: 6.6 m/s
86%
17:00
16°
1009.2 hPa 2.0 mm
82%
11.0°
4
Windvlaag: 7 m/s
86%
18:00
15°
1008.5 hPa 2.1 mm
82%
11.6°
4
Windvlaag: 7.3 m/s
86%
19:00
15°
1007.6 hPa 2.6 mm
82%
12.5°
4
Windvlaag: 8.3 m/s
86%
20:00
15°
1006.7 hPa 2.8 mm
82%
12.7°
5
Windvlaag: 9.8 m/s
86%
21:00
15°
1005.0 hPa 4.5 mm
82%
12.3°
6
Windvlaag: 11.3 m/s
86%
22:00
15°
1003.4 hPa 6.6 mm
82%
12.8°
7
Windvlaag: 14.1 m/s
86%
23:00
15°
1002.0 hPa 5.4 mm
82%
13.1°
9
Windvlaag: 17.1 m/s
86% warningclass
 08:05     18:32    Daglengte: 10:27 Zaterdag 30 Okt
00:00
16°
1001.2 hPa 7.6 mm
82%
14.8°
10
Windvlaag: 18.7 m/s
86% warningclass
01:00
18°
1000.7 hPa 7.0 mm
82%
16.7°
9
Windvlaag: 18.7 m/s
86% warningclass
02:00
18°
1000.4 hPa 8.3 mm
82%
16.9°
9
Windvlaag: 18.2 m/s
86% warningclass
03:00
19°
1000.7 hPa 7.1 mm
82%
16.8°
9
Windvlaag: 18 m/s
86% warningclass
04:00
18°
1000.9 hPa 7.8 mm
82%
17.0°
8
Windvlaag: 14.8 m/s
86%
05:00
18°
1001.0 hPa 6.4 mm
82%
16.9°
7
Windvlaag: 15.7 m/s
86%
06:00
18°
1002.2 hPa
82%
15.7°
6
Windvlaag: 13.1 m/s
85%
07:00
18°
1002.6 hPa 6.5 mm
81%
16.3°
5
Windvlaag: 13.4 m/s
85%
08:00
17°
1003.7 hPa 4.0 mm
82%
16.6°
4
Windvlaag: 13.3 m/s
86%
09:00
17°
1004.8 hPa 3.6 mm
82%
16.3°
4
Windvlaag: 4.7 m/s
86%
10:00
18°
1005.9 hPa 3.9 mm
100%
15.0°
4
Windvlaag: 8 m/s
98%
11:00
18°
1006.2 hPa 6.7 mm
100%
14.2°
4
Windvlaag: 8.1 m/s
96%
12:00
18°
1006.4 hPa 4.8 mm
100%
13.4°
4
Windvlaag: 8.1 m/s
97%
13:00
18°
1006.7 hPa 5.1 mm
100%
13.3°
4
Windvlaag: 8.2 m/s
100%
14:00
18°
1006.5 hPa 5.4 mm
100%
12.8°
4
Windvlaag: 7.9 m/s
100%
15:00
18°
1006.4 hPa 6.1 mm
100%
11.6°
5
Windvlaag: 7.2 m/s
100%
16:00
18°
1006.4 hPa 6.5 mm
100%
12.8°
5
Windvlaag: 7.4 m/s
100% warningclass
17:00
18°
1006.5 hPa 6.6 mm
100%
14.0°
4
Windvlaag: 6.1 m/s
100% warningclass
18:00
17°
1006.5 hPa 4.5 mm
100%
15.1°
4
Windvlaag: 5 m/s
100%
19:00
17°
1006.6 hPa 4.8 mm
100%
15.8°
3
Windvlaag: 4.2 m/s
100%
20:00
18°
1007.0 hPa 9.4 mm
100%
16.2°
4
Windvlaag: 6.7 m/s
100% warningclass
21:00
18°
1007.4 hPa 5.5 mm
100%
17.1°
6
Windvlaag: 8.5 m/s
100% warningclass
22:00
18°
1007.8 hPa 9.9 mm
100%
17.3°
6
Windvlaag: 8.1 m/s
100% warningclass
23:00
18°
1008.1 hPa 10.9 mm
100%
17.2°
5
Windvlaag: 7.9 m/s
100% warningclass
 08:06     18:30    Daglengte: 10:24 Zondag 31 Okt
00:00
18°
1008.8 hPa 10.5 mm
100%
17.2°
5
Windvlaag: 6.8 m/s
100% warningclass
01:00
18°
1008.8 hPa 7.3 mm
100%
17.3°
5
Windvlaag: 8.3 m/s
100% warningclass
01:00
18°
1008.3 hPa 9.5 mm
100%
17.8°
5
Windvlaag: 9.4 m/s
100% warningclass
02:00
18°
1008.4 hPa 8.5 mm
100%
17.8°
7
Windvlaag: 14 m/s
100% warningclass
03:00
18°
1008.4 hPa 8.4 mm
100%
17.9°
7
Windvlaag: 13.8 m/s
100% warningclass
04:00
18°
1008.3 hPa 9.5 mm
100%
17.7°
7
Windvlaag: 13.7 m/s
100% warningclass
05:00
18°
1008.7 hPa 10.2 mm
100%
17.5°
7
Windvlaag: 15.3 m/s
100% warningclass
06:00
18°
1009.0 hPa 10.6 mm
100%
17.6°
6
Windvlaag: 15.5 m/s
100% warningclass
07:00
19°
1008.9 hPa 12.4 mm
100%
18.1°
5
Windvlaag: 1.8 m/s
100%
08:00
19°
1009.4 hPa 12.2 mm
100%
18.0°
5
Windvlaag: 4.6 m/s
100%
09:00
19°
1010.0 hPa 12.3 mm
100%
17.2°
5
Windvlaag: 8.9 m/s
100%
10:00
19°
1010.2 hPa 12.8 mm
100%
17.1°
5
Windvlaag: 11.6 m/s
100%
11:00
19°
1010.6 hPa 13.3 mm
100%
17.5°
5
Windvlaag: 13.4 m/s
100%
Temp/Neerslag /Baro Onweer/Dauwpunt
    Temp Baro Neerslag Dauwpunt Wind Bewolking  
 08:03     18:34    Daglengte: 10:31 Vandaag
13:00
19°
1014.3 hPa   9.9°
5
53%
16:00
18°
1012.5 hPa   12.9°
7
59%
19:00
16°
1011.0 hPa 1.7 mm 14.1°
7
86%
22:00
16°
1010.6 hPa 14.3 mm 15.1°
7
86%
 08:04     18:33    Daglengte: 10:29 Morgen
01:00
16°
1009.4 hPa 6.5 mm 15.6°
6
86% warningclass
04:00
16°
1009.2 hPa 6.2 mm 14.2°
4
84%
07:00
15°
1010.0 hPa   13.7°
1
33%
10:00
15°
1011.4 hPa   13.5°
1
63%
13:00
17°
1011.1 hPa   13.3°
3
70%
16:00
16°
1009.6 hPa 3.2 mm 10.5°
4
86%
19:00
15°
1007.6 hPa 6.7 mm 12.5°
4
86%
22:00
15°
1003.4 hPa 13.9 mm 12.8°
7
86%
 08:05     18:32    Daglengte: 10:27 Zaterdag 30 Okt
01:00
18°
1000.7 hPa 20.1 mm 16.7°
9
86% warningclass
04:00
18°
1000.9 hPa 23.2 mm 17.0°
8
86%
07:00
18°
1002.6 hPa 12.9 mm 16.3°
5
85%
10:00
18°
1005.9 hPa 11.5 mm 15.0°
4
98%
13:00
18°
1006.7 hPa 16.6 mm 13.3°
4
100%
16:00
18°
1006.4 hPa 17.9 mm 12.8°
5
100% warningclass
19:00
17°
1006.6 hPa 15.9 mm 15.8°
3
100%
22:00
18°
1007.8 hPa 24.9 mm 17.3°
6
100% warningclass
 08:06     18:30    Daglengte: 10:24 Zondag 31 Okt
01:00
18°
1008.8 hPa 28.7 mm 17.3°
5
100% warningclass
03:00
18°
1008.4 hPa 26.4 mm 17.9°
7
100% warningclass
06:00
18°
1009.0 hPa 30.2 mm 17.6°
6
100% warningclass
09:00
19°
1010.0 hPa 36.8 mm 17.2°
5
100%
12:00
18°
1010.7 hPa 38.5 mm 17.4°
4
100%
15:00
18°
1010.3 hPa 56.7 mm 17.8°
8
1%
18:00
18°
1010.8 hPa 62.7 mm 18.0°
8
1%
21:00
17°
1012.2 hPa 65.1 mm 16.3°
1
1%
 08:08     18:29    Daglengte: 10:21 Maandag 01 Nov
00:00
18°
1010.7 hPa 66.4 mm 17.5°
6
1%
03:00
16°
1012.2 hPa 73.1 mm 14.6°
6
1%
06:00
15°
1015.1 hPa 73.4 mm 13.1°
5
1%
09:00
15°
1017.9 hPa 73.4 mm 11.9°
4
1%
12:00
16°
1018.8 hPa 73.4 mm 8.6°
4
1%
15:00
16°
1018.3 hPa 73.4 mm 7.2°
5
1%
18:00
14°
1018.8 hPa 73.4 mm 9.5°
4
1%
21:00
14°
1019.6 hPa 73.4 mm 9.1°
2
1%
 08:09     18:28    Daglengte: 10:19 Dinsdag 02 Nov
00:00
13°
1018.7 hPa 73.4 mm 8.5°
1
1%
03:00
13°
1017.9 hPa 73.4 mm 8.3°
1
1%
06:00
13°
1017.4 hPa 73.4 mm 8.3°
0
1%
09:00
14°
1017.6 hPa 73.4 mm 8.1°
1
1%
12:00
16°
1016.8 hPa 73.5 mm 9.2°
3
1%
15:00
16°
1015.4 hPa 73.6 mm 9.2°
4
1%
18:00
15°
1015.4 hPa 74.2 mm 11.5°
4
1%
21:00
15°
1015.4 hPa 74.6 mm 11.5°
5
1%
 08:10     18:27    Daglengte: 10:17 Woensdag 03 Nov
00:00
15°
1015.6 hPa 75.4 mm 10.6°
7
1%
03:00
13°
1016.1 hPa 75.5 mm 9.5°
6
1%
06:00
12°
1017.0 hPa 75.6 mm 9.2°
2
1%
09:00
13°
1019.0 hPa 75.9 mm 8.1°
2
0%
12:00
15°
1019.3 hPa 76.0 mm 5.6°
3
0%
15:00
15°
1018.4 hPa 76.1 mm 6.6°
6
0%
18:00
14°
1019.3 hPa 76.1 mm 8.1°
5
0%
21:00
13°
1020.6 hPa 76.1 mm 8.5°
4
0%
 08:11     18:25    Daglengte: 10:14 Donderdag 04 Nov
00:00
11°
1020.8 hPa 76.1 mm 8.1°
3
0%
03:00
10°
1020.7 hPa 76.1 mm 7.2°
3
0%
06:00
10°
Voelt als: 8.4°
1020.8 hPa 76.1 mm 6.0°
2
0%
09:00
11°
1022.2 hPa   4.1°
2
0%
12:00
14°
1021.8 hPa 152.1 mm 2.2°
3
0%
18:00
14°
1021.5 hPa 152.1 mm 5.5°
3
0%
 08:12     18:24    Daglengte: 10:12 Vrijdag 05 Nov
00:00
12°
1023.5 hPa 152.1 mm 4.3°
3
0%
06:00
10°
1024.5 hPa 152.1 mm 4.3°
4
0%
12:00
16°
1025.8 hPa 152.1 mm 2.1°
3
0%
18:00
15°
1025.1 hPa 152.1 mm 3.9°
3
0%
 08:14     18:23    Daglengte: 10:09 Zaterdag 06 Nov
00:00
12°
1026.1 hPa 152.1 mm 4.6°
2
0%
06:00
10°
1026.0 hPa 152.1 mm 4.1°
2
0%
12:00
16°
1026.1 hPa 152.1 mm 0.7°
1
0%
18:00
15°
1025.3 hPa 152.1 mm 4.8°
3
0%
 08:15     18:22    Daglengte: 10:07 Zondag 07 Nov
00:00
12°
1026.3 hPa 152.1 mm 3.1°
2
0%
06:00
12°
1020.0 hPa 0.2 mm 5.1°
2
61%
12:00
17°
1019.9 hPa 0.4 mm 5.5°
1
60%
18:00
15°
1019.1 hPa 1.1 mm 8.2°
1
70%
 08:16     18:21    Daglengte: 10:05 Maandag 08 Nov
00:00
14°
1020.3 hPa 1.0 mm 8.0°
1
64%
06:00
12°
1020.1 hPa 1.6 mm 7.2°
2
57%
12:00
17°
1020.8 hPa 0.8 mm 6.4°
1
50%
18:00
15°
1020.2 hPa 0.2 mm 7.8°
3
48%
 08:17     18:20    Daglengte: 10:03 Dinsdag 09 Nov
00:00
13°
1021.4 hPa   7.1°
3
44%
06:00
12°
1021.0 hPa   6.3°
3
38%
12:00
17°
1021.2 hPa 0.4 mm 6.1°
2
39%
18:00
15°
1020.5 hPa 0.1 mm 8.4°
3
38%
 08:18     18:19    Daglengte: 10:01 Woensdag 10 Nov
00:00
13°
1021.4 hPa 0.1 mm 7.7°
3
36%
06:00
12°
1020.9 hPa 0.3 mm 7.2°
2
35%
12:00
17°
1020.9 hPa 0.4 mm 6.6°
2
40%
18:00
15°
1019.7 hPa 0.5 mm 8.2°
2
41%
 08:20     18:18    Daglengte: 9:58 Donderdag 11 Nov
00:00
13°
1020.1 hPa 0.5 mm 7.3°
2
33%
06:00
12°
1019.4 hPa 0.5 mm 6.7°
2
39%
12:00
17°
1019.5 hPa 0.4 mm 6.6°
1
39%
18:00
15°
1019.0 hPa 0.3 mm 7.8°
2
37%
 08:21     18:17    Daglengte: 9:56 Vrijdag 12 Nov
00:00
13°
1019.8 hPa 0.2 mm 7.0°
2
38%
06:00
12°
1019.4 hPa 0.3 mm 6.2°
2
50%
  CAPE Lifted Index Hail Supercell Tornado SRH 3km CL BTM PRES CL TOP PRES Swiss DWD icon SMHI TS
 08:03     18:34    Daglengte: 10:31 Vandaag
13:00 0 J/kg 8.1 K 0 % 0 % 0 % 0 m²/s² 0 0 11.79 3
14:00 0 J/kg 7.0 K 0 % 0 % 0 % 0 m²/s² 0 0 10.66 3
15:00 0 J/kg 6.2 K 0 % 0 % 0 % 0 m²/s² 0 0 10.37 3
16:00 0 J/kg 5.4 K 0 % 0 % 0 % 0 m²/s² 0 0 10.65 3
17:00 0 J/kg 5.0 K 0 % 0 % 0 % 0 m²/s² 0 0 9.95 3
18:00 3 J/kg 4.6 K 0 % 0 % 0 % 0 m²/s² 0 0 6.64 61
19:00 25 J/kg 2.9 K 0 % 0 % 0 % 0 m²/s² 0 0 2.99 63
20:00 2 J/kg 2.7 K 0 % 0 % 0 % 0 m²/s² 0 0 2.79 63
21:00 0 J/kg 1.0 K 0 % 0 % 0 % 0 m²/s² 0 0 2.08 63
22:00 25 J/kg 0.1 K 0 % 0 % 0 % 0 m²/s² 0 0 1.45 80
23:00 126 J/kg 0.3 K 0 % 0 % 0 % 0 m²/s² 0 0 1.65 80
 08:04     18:33    Daglengte: 10:29 Morgen
00:00 219 J/kg 0.7 K 0 % 0 % 0 % 0 m²/s² 0 0 1.57 80
01:00 374 J/kg 0.4 K 0 % 0 % 0 % 0 m²/s² 0 0 1.18 95
02:00 414 J/kg 0.2 K 0 % 0 % 0 % 0 m²/s² 0 0 0.8 95
03:00 389 J/kg 0.1 K 0 % 0 % 0 % 0 m²/s² 0 0 0.97 80
04:00 295 J/kg 0.4 K 0 % 0 % 0 % 0 m²/s² 0 0 2.32 3
05:00 333 J/kg -0.2 K 0 % 0 % 0 % 0 m²/s² 0 0 2.2 3
06:00 221 J/kg 0.6 K 0 % 0 % 0 % 0 m²/s² 0 0 4.92 3
07:00 107 J/kg 1.7 K 0 % 0 % 0 % 0 m²/s² 0 0 9.62 3
08:00 117 J/kg 2.8 K 0 % 0 % 0 % 0 m²/s² 0 0 11.35 3
09:00 103 J/kg 4.0 K 0 % 0 % 0 % 0 m²/s² 0 0 9.19 3
10:00 84 J/kg 4.5 K 0 % 0 % 0 % 0 m²/s² 0 0 8.85 3
11:00 38 J/kg 4.9 K 0 % 0 % 0 % 0 m²/s² 0 0 9.46 3
12:00 22 J/kg 5.0 K 0 % 0 % 0 % 0 m²/s² 0 0 9.14 3
13:00 31 J/kg 5.3 K 0 % 0 % 0 % 0 m²/s² 0 0 9.98 3
14:00 47 J/kg 5.4 K 0 % 0 % 0 % 0 m²/s² 0 0 8.85 3
15:00 44 J/kg 5.8 K 0 % 0 % 0 % 0 m²/s² 0 0 8.41 80
16:00 58 J/kg 5.8 K 0 % 0 % 0 % 0 m²/s² 0 0 7.6 61
17:00 66 J/kg 6.0 K 0 % 0 % 0 % 0 m²/s² 0 0 6.75 61
18:00 139 J/kg 6.3 K 0 % 0 % 0 % 0 m²/s² 0 0 6.39 61
19:00 95 J/kg 6.6 K 0 % 0 % 0 % 0 m²/s² 0 0 6.63 61
20:00 41 J/kg 6.3 K 0 % 0 % 0 % 0 m²/s² 0 0 6.3 61
21:00 17 J/kg 5.5 K 0 % 0 % 0 % 0 m²/s² 0 0 5.5 63
22:00 0 J/kg 1.9 K 0 % 0 % 0 % 0 m²/s² 0 0 1.9 63
23:00 0 J/kg -0.1 K 0 % 0 % 0 % 0 m²/s² 0 0 -0.1 63
 08:05     18:32    Daglengte: 10:27 Zaterdag 30 Okt
00:00 1 J/kg -0.8 K 0 % 0 % 0 % 0 m²/s² 0 0 -0.77 95
01:00 126 J/kg -2.0 K 0 % 0 % 0 % 0 m²/s² 0 0 1.45 95
02:00 346 J/kg -2.4 K 0 % 0 % 0 % 0 m²/s² 0 0 3.27 95
03:00 422 J/kg -2.8 K 0 % 0 % 0 % 0 m²/s² 0 0 4.34 95
04:00 205 J/kg -1.6 K 0 % 0 % 0 % 0 m²/s² 0 0 5.75 80
05:00 39 J/kg 0.0 K 0 % 0 % 0 % 0 m²/s² 0 0 7.08 80
06:00 7 J/kg 2.1 K 0 % 0 % 0 % 0 m²/s² 0 0 8.94 3
07:00 12 J/kg 3.0 K 0 % 0 % 0 % 0 m²/s² 0 0 10.53 3
08:00 34 J/kg 3.0 K 0 % 0 % 0 % 0 m²/s² 0 0 9.63 3
09:00 65 J/kg 3.1 K 0 % 0 % 0 % 0 m²/s² 0 0 8.02 61
10:00 75 J/kg 3.5 K 0 % 0 % 0 % 0 m²/s² 0 0 7.22 61
11:00 58 J/kg 3.8 K 0 % 0 % 0 % 0 m²/s² 0 0 6.56 61
12:00 34 J/kg 4.2 K 0 % 0 % 0 % 0 m²/s² 0 0 6.39 63
13:00 49 J/kg 4.0 K 0 % 0 % 0 % 0 m²/s² 0 0 5.56 63
14:00 17 J/kg 4.7 K 0 % 0 % 0 % 0 m²/s² 0 0 5.33 63
15:00 15 J/kg 5.2 K 0 % 0 % 0 % 0 m²/s² 0 0 5.47 61
16:00 2 J/kg 5.6 K 0 % 0 % 0 % 0 m²/s² 0 0 5.6 95
17:00 0 J/kg 5.2 K 0 % 0 % 0 % 0 m²/s² 0 0 5.2 95
18:00 0 J/kg 4.5 K 0 % 0 % 0 % 0 m²/s² 0 0 4.5 80
19:00 0 J/kg 3.4 K 0 % 0 % 0 % 0 m²/s² 0 0 3.4 80
20:00 0 J/kg 2.3 K 0 % 0 % 0 % 0 m²/s² 0 0 2.3 95
21:00 0 J/kg 2.5 K 0 % 0 % 0 % 0 m²/s² 0 0 2.5 95
22:00 0 J/kg 3.6 K 0 % 0 % 0 % 0 m²/s² 0 0 3.6 95
23:00 0 J/kg 2.8 K 0 % 0 % 0 % 0 m²/s² 0 0 2.8 95
 08:06     18:30    Daglengte: 10:24 Zondag 31 Okt
00:00 3 J/kg 2.2 K 0 % 0 % 0 % 0 m²/s² 0 0 2.23 95
01:00 1 J/kg 2.1 K 0 % 0 % 0 % 0 m²/s² 0 0 2.1 95
01:00 0 J/kg 1.8 K 0 % 0 % 0 % 0 m²/s² 0 0 1.8 95
02:00 1 J/kg 1.4 K 0 % 0 % 0 % 0 m²/s² 0 0 1.61 95
03:00 3 J/kg 0.7 K 0 % 0 % 0 % 0 m²/s² 0 0 0.91 95
04:00 0 J/kg -0.5 K 0 % 0 % 0 % 0 m²/s² 0 0 0.13 95
05:00 0 J/kg -1.1 K 0 % 0 % 0 % 0 m²/s² 0 0 -0.2 95
06:00 0 J/kg -1.1 K 0 % 0 % 0 % 0 m²/s² 0 0 -0.29 95
07:00 0 J/kg -0.6 K 0 % 0 % 0 % 0 m²/s² 0 0 0.12 80
08:00 9 J/kg 0.7 K 0 % 0 % 0 % 0 m²/s² 0 0 1.45 80
09:00 46 J/kg 1.5 K 0 % 0 % 0 % 0 m²/s² 0 0 2.31 80
10:00 95 J/kg 1.5 K 0 % 0 % 0 % 0 m²/s² 0 0 1.62 80
11:00 88 J/kg 1.4 K 0 % 0 % 0 % 0 m²/s² 0 0 1.4 61
Temp Baro Wind Neerslag
  EWN Forecast EWN WRFDA DWD ICON FMI HIRLAM MET Norway GFS
 08:03     18:34    Daglengte: 10:31 Vandaag
13:00 18.7° 1014.3 hPa 5.4 m/s 0.0 mm 18.8° 1013.7 hPa 5.8 m/s 0.0 mm 18.3° 1014.3 hPa 4.8 m/s -2.0 mm 18.7° 1014.2 hPa 6.2 m/s 0.0 mm 18.2° 1015.1 hPa 5.7 m/s
16:00 17.7° 1012.5 hPa 6.6 m/s 0.0 mm 18.4° 1012.0 hPa 7.2 m/s 0.0 mm 17.9° 1012.0 hPa 6.4 m/s 0.0 mm 17.8° 1012.5 hPa 7.8 m/s 0.0 mm 18.0° 1013.0 hPa 6.7 m/s
19:00 16.1° 1011.0 hPa 6.7 m/s 1.7 mm 16.8° 1011.3 hPa 7.4 m/s 0.6 mm 16.2° 1010.4 hPa 6.5 m/s 4.5 mm 16.3° 1010.8 hPa 7.3 m/s 0.0 mm 16.7° 1011.2 hPa 8.2 m/s
22:00 16.2° 1010.6 hPa 6.6 m/s 14.3 mm 16.2° 1010.5 hPa 7.9 m/s 7.2 mm 16.4° 1010.5 hPa 6.3 m/s 17.4 mm 16.5° 1010.5 hPa 8.3 m/s 0.0 mm 15.8° 1011.3 hPa 9.2 m/s
 08:04     18:33    Daglengte: 10:29 Morgen
01:00 16.2° 1009.4 hPa 5.5 m/s 6.5 mm 16.6° 1009.7 hPa 4.5 m/s 9.5 mm 16.6° 1008.7 hPa 5.7 m/s 4.1 mm 16.5° 1009.3 hPa 5.8 m/s 0.0 mm 15.7° 1010.4 hPa 5.3 m/s
04:00 16.1° 1009.2 hPa 3.6 m/s 6.2 mm 17.2° 1008.2 hPa 5.9 m/s 10.3 mm 16.3° 1009.1 hPa 2.3 m/s 5.0 mm 16.2° 1009.2 hPa 3.6 m/s 0.0 mm 15.9° 1009.6 hPa 4.1 m/s
07:00 15.4° 1010.0 hPa 1.5 m/s 0.0 mm 16.4° 1009.0 hPa 3.7 m/s 15.9 mm 15.3° 1010.4 hPa 1.3 m/s 0.0 mm 15.6° 1009.1 hPa 0.9 m/s 0.0 mm 16.0° 1009.6 hPa 2.8 m/s
10:00 15.3° 1011.4 hPa 1.4 m/s 0.0 mm 17.1° 1010.7 hPa 3.2 m/s 18.9 mm 15.6° 1011.6 hPa 1.4 m/s 0.0 mm 15.2° 1010.7 hPa 0.9 m/s 0.0 mm 16.5° 1011.0 hPa 1.9 m/s
13:00 16.9° 1011.1 hPa 3.5 m/s 0.0 mm 18.2° 1009.8 hPa 3.5 m/s 19.1 mm 16.9° 1011.3 hPa 4.1 m/s 0.0 mm 16.9° 1010.4 hPa 3.5 m/s 0.0 mm 17.3° 1010.6 hPa 2.7 m/s
16:00 16.1° 1009.6 hPa 4.1 m/s 3.2 mm 18.1° 1008.3 hPa 5.0 m/s 19.1 mm 15.1° 1009.9 hPa 3.9 m/s 1.2 mm 17.9° 1008.7 hPa 5.0 m/s 0.0 mm 17.5° 1008.4 hPa 4.8 m/s
19:00 14.9° 1007.6 hPa 4.4 m/s 6.7 mm 16.1° 1006.9 hPa 7.3 m/s 20.2 mm 14.6° 1007.6 hPa 3.9 m/s 5.8 mm 15.6° 1006.3 hPa 4.3 m/s 0.0 mm 15.4° 1006.7 hPa 7.0 m/s
22:00 15.1° 1003.4 hPa 6.9 m/s 13.9 mm 16.6° 1002.0 hPa 11.3 m/s 30.5 mm 15.1° 1002.3 hPa 6.4 m/s 17.3 mm 15.1° 1003.2 hPa 5.7 m/s 0.0 mm 16.1° 1001.2 hPa 13.2 m/s
 08:05     18:32    Daglengte: 10:27 Zaterdag 30 Okt
01:00 17.8° 1000.7 hPa 9.3 m/s 20.1 mm 18.0° 1001.2 hPa 13.0 m/s 44.2 mm 18.1° 1001.0 hPa 7.9 m/s 12.2 mm 18.8° 996.7 hPa 10.8 m/s 0.0 mm 17.8° 1000.4 hPa 13.3 m/s
04:00 18.2° 1000.9 hPa 8.0 m/s 23.2 mm 18.6° 1001.5 hPa 10.6 m/s 49.5 mm 18.5° 1001.7 hPa 6.3 m/s 7.9 mm 18.2° 997.5 hPa 8.3 m/s 0.0 mm 18.4° 1001.4 hPa 10.7 m/s
07:00 17.7° 1002.6 hPa 5.0 m/s 12.9 mm 17.3° 1005.1 hPa 3.7 m/s 51.4 mm 18.6° 1002.4 hPa 5.2 m/s 0.5 mm 16.1° 1003.3 hPa 1.7 m/s 0.0 mm 16.7° 1005.5 hPa 4.6 m/s
10:00 17.9° 1005.9 hPa 3.9 m/s 11.5 mm 17.9° 1007.5 hPa 3.3 m/s 51.8 mm 18.5° 1005.3 hPa 3.7 m/s 1.3 mm 17.2° 1007.8 hPa 3.1 m/s
13:00 18.4° 1006.7 hPa 4.2 m/s 16.6 mm 19.4° 1008.1 hPa 5.1 m/s 52.3 mm 18.4° 1005.1 hPa 2.2 m/s 8.2 mm 18.5° 1008.0 hPa 5.0 m/s
16:00 18.3° 1006.4 hPa 4.9 m/s 17.9 mm 19.1° 1007.9 hPa 4.8 m/s 52.5 mm 18.7° 1003.6 hPa 6.6 m/s 11.2 mm 17.8° 1007.3 hPa 5.0 m/s
19:00 17.3° 1006.6 hPa 3.4 m/s 15.9 mm 17.1° 1006.9 hPa 1.6 m/s 57.2 mm 19.1° 1005.4 hPa 7.7 m/s 8.9 mm 16.4° 1006.4 hPa 3.1 m/s
22:00 18.1° 1007.8 hPa 5.5 m/s 24.9 mm 17.3° 1007.6 hPa 1.8 m/s 68.9 mm 19.1° 1007.2 hPa 7.4 m/s 8.2 mm 16.5° 1007.0 hPa 2.4 m/s
 08:06     18:30    Daglengte: 10:24 Zondag 31 Okt
01:00 18.2° 1008.8 hPa 4.9 m/s 28.7 mm 17.5° 1009.1 hPa 1.3 m/s 77.8 mm 19.2° 1007.1 hPa 8.2 m/s 9.6 mm 16.6° 1008.2 hPa 1.6 m/s
03:00 18.4° 1008.4 hPa 7.1 m/s 26.4 mm 17.3° 1008.6 hPa 1.4 m/s 87.0 mm 19.1° 1007.2 hPa 7.6 m/s 10.4 mm 16.7° 1008.3 hPa 1.8 m/s
06:00 18.3° 1009.0 hPa 6.3 m/s 30.2 mm 17.4° 1009.2 hPa 0.5 m/s 98.3 mm 18.9° 1008.3 hPa 6.5 m/s 6.9 mm 16.9° 1008.9 hPa 1.7 m/s
09:00 18.8° 1010.0 hPa 5.4 m/s 36.8 mm 18.7° 1011.7 hPa 4.5 m/s 101.4 mm 18.8° 1009.6 hPa 5.6 m/s 4.5 mm 17.8° 1011.2 hPa 4.2 m/s
12:00 18.4° 1010.7 hPa 3.9 m/s 38.5 mm 18.4° 1012.2 hPa 7.5 m/s 104.1 mm 18.5° 1010.3 hPa 3.0 m/s 5.8 mm 17.7° 1011.2 hPa 7.8 m/s
15:00 18.3° 1010.3 hPa 7.8 m/s 56.7 mm 18.3° 1010.3 hPa 7.8 m/s 56.7 mm
18:00 18.3° 1010.8 hPa 8.0 m/s 62.7 mm 18.3° 1010.8 hPa 8.0 m/s 62.7 mm
21:00 17.0° 1012.2 hPa 0.7 m/s 65.1 mm 17.0° 1012.2 hPa 0.7 m/s 65.1 mm
 08:08     18:29    Daglengte: 10:21 Maandag 01 Nov
00:00 17.8° 1010.7 hPa 6.2 m/s 66.4 mm 17.8° 1010.7 hPa 6.2 m/s 66.4 mm
03:00 15.6° 1012.2 hPa 5.5 m/s 73.1 mm 15.6° 1012.2 hPa 5.5 m/s 73.1 mm
06:00 14.8° 1015.1 hPa 4.7 m/s 73.4 mm 14.8° 1015.1 hPa 4.7 m/s 73.4 mm
09:00 15.1° 1017.9 hPa 4.3 m/s 73.4 mm 15.1° 1017.9 hPa 4.3 m/s 73.4 mm
12:00 16.3° 1018.8 hPa 4.2 m/s 73.4 mm 16.3° 1018.8 hPa 4.2 m/s 73.4 mm
15:00 16.5° 1018.3 hPa 5.0 m/s 73.4 mm 16.5° 1018.3 hPa 5.0 m/s 73.4 mm
18:00 14.5° 1018.8 hPa 3.9 m/s 73.4 mm 14.5° 1018.8 hPa 3.9 m/s 73.4 mm
21:00 14.0° 1019.6 hPa 2.3 m/s 73.4 mm 14.0° 1019.6 hPa 2.3 m/s 73.4 mm
 08:09     18:28    Daglengte: 10:19 Dinsdag 02 Nov
00:00 13.4° 1018.7 hPa 1.1 m/s 73.4 mm 13.4° 1018.7 hPa 1.1 m/s 73.4 mm
03:00 12.8° 1017.9 hPa 0.8 m/s 73.4 mm 12.8° 1017.9 hPa 0.8 m/s 73.4 mm
06:00 13.2° 1017.4 hPa 0.3 m/s 73.4 mm 13.2° 1017.4 hPa 0.3 m/s 73.4 mm
09:00 14.3° 1017.6 hPa 1.2 m/s 73.4 mm 14.3° 1017.6 hPa 1.2 m/s 73.4 mm
12:00 15.9° 1016.8 hPa 3.0 m/s 73.5 mm 15.9° 1016.8 hPa 3.0 m/s 73.5 mm
15:00 15.7° 1015.4 hPa 4.2 m/s 73.6 mm 15.7° 1015.4 hPa 4.2 m/s 73.6 mm
18:00 15.2° 1015.4 hPa 4.5 m/s 74.2 mm 15.2° 1015.4 hPa 4.5 m/s 74.2 mm
21:00 14.9° 1015.4 hPa 5.4 m/s 74.6 mm 14.9° 1015.4 hPa 5.4 m/s 74.6 mm
 08:10     18:27    Daglengte: 10:17 Woensdag 03 Nov
00:00 14.6° 1015.6 hPa 6.7 m/s 75.4 mm 14.6° 1015.6 hPa 6.7 m/s 75.4 mm
03:00 13.2° 1016.1 hPa 5.6 m/s 75.5 mm 13.2° 1016.1 hPa 5.6 m/s 75.5 mm
06:00 12.2° 1017.0 hPa 2.4 m/s 75.6 mm 12.2° 1017.0 hPa 2.4 m/s 75.6 mm
09:00 12.9° 1019.0 hPa 2.1 m/s 75.9 mm 12.9° 1019.0 hPa 2.1 m/s 75.9 mm
12:00 14.8° 1019.3 hPa 3.3 m/s 76.0 mm 14.8° 1019.3 hPa 3.3 m/s 76.0 mm
15:00 15.3° 1018.4 hPa 5.5 m/s 76.1 mm 15.3° 1018.4 hPa 5.5 m/s 76.1 mm
18:00 13.6° 1019.3 hPa 4.6 m/s 76.1 mm 13.6° 1019.3 hPa 4.6 m/s 76.1 mm
21:00 12.5° 1020.6 hPa 3.7 m/s 76.1 mm 12.5° 1020.6 hPa 3.7 m/s 76.1 mm
 08:11     18:25    Daglengte: 10:14 Donderdag 04 Nov
00:00 11.1° 1020.8 hPa 3.1 m/s 76.1 mm 11.1° 1020.8 hPa 3.1 m/s 76.1 mm
03:00 10.1° 1020.7 hPa 2.5 m/s 76.1 mm 10.1° 1020.7 hPa 2.5 m/s 76.1 mm
06:00 9.6° 1020.8 hPa 2.4 m/s 76.1 mm 9.6° 1020.8 hPa 2.4 m/s 76.1 mm
09:00 10.8° 1022.2 hPa 2.4 m/s 76.1 mm 10.8° 1022.2 hPa 2.4 m/s 76.1 mm
12:00 14.4° 1021.8 hPa 2.8 m/s 76.1 mm 14.4° 1021.8 hPa 2.8 m/s 76.1 mm
18:00 14.4° 1021.5 hPa 3.2 m/s 76.1 mm 14.4° 1021.5 hPa 3.2 m/s 76.1 mm
 08:12     18:24    Daglengte: 10:12 Vrijdag 05 Nov
00:00 11.7° 1023.5 hPa 2.7 m/s 76.1 mm 11.7° 1023.5 hPa 2.7 m/s 76.1 mm
06:00 10.3° 1024.5 hPa 3.9 m/s 76.1 mm 10.3° 1024.5 hPa 3.9 m/s 76.1 mm
12:00 16.2° 1025.8 hPa 2.7 m/s 76.1 mm 16.2° 1025.8 hPa 2.7 m/s 76.1 mm
18:00 14.5° 1025.1 hPa 2.7 m/s 76.1 mm 14.5° 1025.1 hPa 2.7 m/s 76.1 mm
 08:14     18:23    Daglengte: 10:09 Zaterdag 06 Nov
00:00 11.6° 1026.1 hPa 2.4 m/s 76.1 mm 11.6° 1026.1 hPa 2.4 m/s 76.1 mm
06:00 10.1° 1026.0 hPa 2.4 m/s 76.1 mm 10.1° 1026.0 hPa 2.4 m/s 76.1 mm
12:00 16.4° 1026.1 hPa 1.4 m/s 76.1 mm 16.4° 1026.1 hPa 1.4 m/s 76.1 mm
18:00 14.6° 1025.3 hPa 2.9 m/s 76.1 mm 14.6° 1025.3 hPa 2.9 m/s 76.1 mm
 08:15     18:22    Daglengte: 10:07 Zondag 07 Nov
00:00 12.1° 1026.3 hPa 1.9 m/s 76.1 mm 12.1° 1026.3 hPa 1.9 m/s 76.1 mm
06:00 12.3° 1020.0 hPa 1.7 m/s 0.2 mm
12:00 16.6° 1019.9 hPa 0.6 m/s 0.4 mm
18:00 14.8° 1019.1 hPa 1.0 m/s 1.1 mm
 08:16     18:21    Daglengte: 10:05 Maandag 08 Nov
00:00 13.5° 1020.3 hPa 1.3 m/s 1.0 mm
06:00 12.5° 1020.1 hPa 1.6 m/s 1.6 mm
12:00 16.5° 1020.8 hPa 1.4 m/s 0.8 mm
18:00 14.5° 1020.2 hPa 2.8 m/s 0.2 mm
 08:17     18:20    Daglengte: 10:03 Dinsdag 09 Nov
00:00 12.7° 1021.4 hPa 2.6 m/s 0.0 mm
06:00 11.7° 1021.0 hPa 2.5 m/s 0.0 mm
12:00 16.6° 1021.2 hPa 2.0 m/s 0.4 mm
18:00 15.1° 1020.5 hPa 2.5 m/s 0.1 mm
 08:18     18:19    Daglengte: 10:01 Woensdag 10 Nov
00:00 13.4° 1021.4 hPa 2.5 m/s 0.1 mm
06:00 12.5° 1020.9 hPa 2.5 m/s 0.3 mm
12:00 17.1° 1020.9 hPa 1.8 m/s 0.4 mm
18:00 15.4° 1019.7 hPa 2.1 m/s 0.5 mm
 08:20     18:18    Daglengte: 9:58 Donderdag 11 Nov
00:00 13.5° 1020.1 hPa 2.0 m/s 0.5 mm
06:00 12.4° 1019.4 hPa 2.2 m/s 0.5 mm
12:00 16.8° 1019.5 hPa 1.1 m/s 0.4 mm
18:00 15.0° 1019.0 hPa 1.8 m/s 0.3 mm
 08:21     18:17    Daglengte: 9:56 Vrijdag 12 Nov
00:00 13.2° 1019.8 hPa 1.5 m/s 0.2 mm
06:00 12.3° 1019.4 hPa 1.8 m/s 0.3 mm
FMI Hirlam - 7.5 km EWN WRFDA - 12 km DWD ICON - 7 km GFS - 25 km Basiskaart






























































Updatetijd (Europe/Brussels) Resolutie Lengte Stap
FMI Hirlam 07:00, 13:00, 19:00, 01:00 7.5 km 49h 1h
EWN WRFDA 09:30, 15:30, 21:30, 03:30 12 km 73h 1h
DWD ICON 11:45, 17:45, 23:45, 05:45 7 km 75h 1h
GFS 08:30, 14:30, 20:30, 02:30 25 km 237h 3h
30+ mm
25-30 mm
20-25 mm
15-20 mm
10-15 mm
6-10 mm
4-6 mm
2-4 mm
1-2 mm
0.5-1 mm
0.2-0.5 mm
0.1-0.2 mm
30+ mm
25-30 mm
20-25 mm
15-20 mm
10-15 mm
6-10 mm
4-6 mm
2-4 mm
1-2 mm
0.5-1 mm
0.2-0.5 mm
0.1-0.2 mm
Sneeuwval
Natte sneeuw
Hagel
Vorst
30+ mm
25-30 mm
20-25 mm
15-20 mm
10-15 mm
6-10 mm
4-6 mm
2-4 mm
1-2 mm
0.5-1 mm
0.2-0.5 mm
0.1-0.2 mm
Sneeuwval
Natte sneeuw
Hagel
Vorst
Onweer
50 mm
40 mm
30 mm
26 mm
22 mm
18 mm
14 mm
10 mm
9 mm
8 mm
7 mm
6 mm
5 mm
4.5 mm
4 mm
3.5 mm
3 mm
2.5 mm
2 mm
1.5 mm
1 mm
0.8 mm
0.6 mm
0.4 mm
0.2 mm
0.05 mm
35°
30°
25°
20°
15°
10°
-5°
-10°
-15°
-20°
-25°
-30°
-35°
33> m/s
29 m/s
25 m/s
21 m/s
17 m/s
14 m/s
11 m/s
8 m/s
5 m/s
3 m/s
0 m/s
2600 J/kg
2400 J/kg
2200 J/kg
2000 J/kg
1800 J/kg
1600 J/kg
1400 J/kg
1200 J/kg
1000 J/kg
800 J/kg
600 J/kg
400 J/kg
200 J/kg
70 dBZ
65 dBZ
60 dBZ
55 dBZ
50 dBZ
45 dBZ
40 dBZ
35 dBZ
30 dBZ
25 dBZ
20 dBZ
15 dBZ
10 dBZ
5 dBZ
-1 K
-2 K
-3 K
-4 K
-5 K
-6 K
-7 K
-8 K
-9 K
950 m²/s²
900 m²/s²
850 m²/s²
800 m²/s²
750 m²/s²
700 m²/s²
650 m²/s²
600 m²/s²
550 m²/s²
500 m²/s²
450 m²/s²
400 m²/s²
350 m²/s²
300 m²/s²
250 m²/s²
200 m²/s²
150 m²/s²
100 m²/s²
46 m/s
44 m/s
42 m/s
40 m/s
38 m/s
36 m/s
34 m/s
32 m/s
30 m/s
28 m/s
26 m/s
24 m/s
22 m/s
20 m/s
16 m/s
12 m/s
8 m/s
4 m/s
30 m/s
28 m/s
26 m/s
24 m/s
22 m/s
20 m/s
18 m/s
16 m/s
14 m/s
12 m/s
10 m/s
8 m/s
6 m/s
4 m/s
2 m/s
3.0
2.8
2.6
2.4
2.2
2.0
1.8
1.6
1.4
1.2
1.0
0.8
0.6
0.4
0.2
15
14
13
12
11
10
9
8
7
6